Location: Prague
(50.0830°N, 14.4670°E)
Time: 02:13:26
(UTC+01:00)

AO-7 - Pass Details

Date: 14 December 2021
Orbit: 1440 x 1459 km, 101.9° (Epoch: 28 January)

Event Time Altitude Azimuth Distance (km) Brightness Sun altitude
Rises 04:06:58 0° 20° (NNE) 4,553 ? -35.0°
Reaches altitude 10° 04:09:50 10° 25° (NNE) 3,573 ? -34.6°
Maximum altitude 04:18:03 59° 104° (ESE) 1,650 ? -33.3°
Drops below altitude 10° 04:26:13 10° 183° (S) 3,567 ? -32.0°
Sets 04:29:04 0° 187° (S) 4,544 ? -31.5°
